Location: Utrecht
(52.0907°N, 5.1214°E)
Time: 11:29:38
(UTC+02:00)

CAS-4A - Visible Passes

Search period start: 04 July 2022 00:00
Search period end: 14 July 2022 00:00
Orbit: 523 x 536 km, 43.0° (Epoch: 03 July)

Date Brightness Start Highest point End Pass type
(mag) Time Alt. Az. Time Alt. Az. Time Alt. Az.
04 Jul ? 03:24:14 17° S 03:25:09 18° SSE 03:27:56 10° ESE visible
05 Jul ? 03:11:56 19° S 03:12:30 19° SSE 03:15:25 10° ESE visible
06 Jul ? 02:59:41 20° S 02:59:52 20° S 03:02:52 10° ESE visible
06 Jul ? 04:35:59 10° WSW 04:39:05 21° S 04:42:12 10° SE visible
07 Jul ? 02:47:31 21° SSE 02:47:31 21° SSE 02:50:17 10° ESE visible
07 Jul ? 04:23:24 10° WSW 04:26:26 21° S 04:29:29 10° SE visible
08 Jul ? 02:35:28 20° SSE 02:35:28 20° SSE 02:37:42 10° ESE visible
08 Jul ? 04:10:51 10° WSW 04:13:47 20° SSW 04:16:44 10° SE visible
09 Jul ? 02:23:42 17° SE 02:23:42 17° SE 02:25:05 10° SE visible
09 Jul ? 03:58:56 13° SW 04:01:08 18° SSW 04:03:57 10° SSE visible
10 Jul ? 03:47:45 16° SSW 03:48:28 17° SSW 03:51:07 10° SSE visible
11 Jul ? 03:37:36 12° S 03:37:36 12° S 03:38:14 10° SSE visible
12 Jul ? 00:01:58 10° SSW 00:03:34 16° S 00:03:34 16° S visible
12 Jul ? 23:49:10 10° SW 23:52:05 19° SSE 23:52:33 19° SSE visible
13 Jul ? 23:36:24 10° SW 23:39:24 20° S 23:40:52 17° SE visible
